Preview of NWS' New Version of Forecast
This preview is not operational and should not be used for support decisions.

Regional Weather Roundup (RWR)

Issued by National Weather Service (NWS)

                            
000
ASUS46 KSEW 231510
RWRWA 

WASHINGTON REGIONAL WEATHER ROUNDUP
NATIONAL WEATHER SERVICE SEATTLE WA
800 AM PDT SUN JUN 23 2019

NOTE:"FAIR" INDICATES FEW OR NO CLOUDS BELOW 12,000 FEET WITH NO 
SIGNIFICANT WEATHER AND/OR OBSTRUCTIONS TO VISIBILITY.

WAZ507-509-555>559-231600-
SEATTLE, TACOMA, EVERETT, AND VICINITY
  
CITY           SKY/WX    TMP DP  RH WIND       PRES   REMARKS
EVERETT        CLOUDY    53  48  83 N3        30.17S                  
BOEING FIELD   CLOUDY    54  50  86 S7        30.18R FOG              
RENTON         CLOUDY    55  51  86 S3        30.18R FOG              
SEATAC AIRPORT CLOUDY    54  49  83 SW6       30.18R                  
JBLM-MCCHORD   CLOUDY    56  52  88 S9        30.18S                  
PUYALLUP       CLOUDY    54  50  87 VRB6G12   30.19R                  
BREMERTON      CLOUDY    52  49  89 S5        30.18R                  
JBLM-FT LEWIS  CLOUDY    56  52  89 S8        30.17S                  
TACOMA NARROWS CLOUDY    53  47  79 SW7       30.18S                  
$$
 
WAZ001-503-506-510-514-515-231600-
NORTH INTERIOR
  
CITY           SKY/WX    TMP DP  RH WIND       PRES   REMARKS
BELLINGHAM     CLOUDY    55  50  83 S5        30.13S                  
FRIDAY HARBOR  CLOUDY    55  48  77 W7        30.14S                  
EASTSOUND      CLOUDY    57  50  77 VRB6      30.12S                  
PORT ANGELES   MOSUNNY   55  48  77 W14       30.17S                  
EDIZ HOOK      FAIR      54  49  85 W13G20    30.16F                  
PORT TOWNSEND  CLOUDY    55  48  76 W10G16    30.16S                  
NAS WHIDBEY    CLOUDY    57  49  74 SW8       30.20R                  
ARLINGTON      CLOUDY    54  48  80 N6        30.18S                  
BURLINGTON     CLOUDY    55  52  88 S3        30.15S                  
$$
 
WAZ020-022-039-040-504-511-512-231600-
SOUTHWEST INTERIOR
  
CITY           SKY/WX    TMP DP  RH WIND       PRES   REMARKS
SHELTON        CLOUDY    56  47  71 W7        30.15S                  
OLYMPIA        CLOUDY    56  47  71 SW8       30.18S                  
CHEHALIS       CLOUDY    55  50  82 SW7       30.21S                  
KELSO          CLOUDY    56  49  77 W8        30.24R                  
VANCOUVER      CLOUDY    56  47  71 NW7       30.24R                  
SCAPPOOSE, OR  CLOUDY    57  47  69 W3        30.23R                  
PORTLAND, OR   PTSUNNY   58  47  66 NW9       30.24R                  
$$
 
WAZ021-516-517-231600-
WASHINGTON COAST
  
CITY           SKY/WX    TMP DP  RH WIND       PRES   REMARKS
FORKS          CLOUDY    54  49  83 W6        30.21S                  
HOQUIAM        CLOUDY    55  53  93 NW10      30.21S                  
ASTORIA, OR    CLOUDY    55  52  89 W6        30.24R                  
$$
 
WAZ019-023-024-040-567>569-231600-
CASCADE MOUNTAINS AND COLUMBIA GORGE
  
CITY           SKY/WX    TMP DP  RH WIND       PRES   REMARKS
STAMPEDE PASS  FOG       45  43  93 W8        30.12R VSB 1/4          
TROUTDALE, OR  CLOUDY    57  48  72 W5        30.23S                  
HOOD RIVER, OR CLOUDY    55  46  71 W12G22    30.17R                  
THE DALLES, OR SUNNY     63  47  55 W18G25    30.12R                  
$$

WAZ026-027-041>044-520-521-231600-
EAST SLOPES
  
CITY           SKY/WX    TMP DP  RH WIND       PRES   REMARKS
OMAK           SUNNY     63  41  44 CALM      29.97S                  
WENATCHEE      PTSUNNY   65  40  39 W14       29.98F                  
ELLENSBURG     MOSUNNY   63  46  54 NW18      30.03S                  
YAKIMA         MOSUNNY   67  43  41 W13       30.04F                  
SUNNYSIDE ARPT SUNNY     62  47  58 CALM      30.05                   
YAKIMA TC      FAIR      66  40  37 NW16      30.02F                  
$$

WAZ028-034-035-231600-
COLUMBIA BASIN
  
CITY           SKY/WX    TMP DP  RH WIND       PRES   REMARKS
EPHRATA        PTSUNNY   67  39  35 CALM      29.99R                  
MOSES LAKE     PTSUNNY   63  46  54 SW7       30.00R                  
PASCO          SUNNY     66  47  50 SW12      30.04S                  
RICHLAND ARPT  MOSUNNY   66  47  49 SW16      30.03S                  
HERMISTON, OR  SUNNY     65  48  54 SW18G26   30.05F                  
$$

WAZ036>038-231600-
NORTHEAST WASHINGTON
  
CITY           SKY/WX    TMP DP  RH WIND       PRES   REMARKS
SPOKANE GEIGER PTSUNNY   57  41  55 SW12      29.99R                  
SPOKANE FELTS  MOSUNNY   60  44  55 S12G20    29.99S                  
FAIRCHILD AFB  MOSUNNY   56  43  62 SW12      29.98R                  
COEURDALENE,ID MOSUNNY   57  45  64 S12       30.01S                  
DEER PARK        N/A     57  43  59 S10       29.99R                  
$$

WAZ029>033-231600-
SOUTHEAST WASHINGTON
  
CITY           SKY/WX    TMP DP  RH WIND       PRES   REMARKS
PULLMAN        PTSUNNY   56  45  66 W14       30.05R                  
LEWISTON, ID   MOSUNNY   66  45  46 CALM      30.02S                  
WALLA WALLA    PTSUNNY   61  46  57 S14G21    30.07R                  
PENDLETON, OR  CLOUDY    60  44  55 W24G30    30.06S                  
$$